Location: CCZU
(31.6840°N, 119.9550°E)
Time: 06:48:13
(UTC+08:00)

ISS - Visible Passes

Search period start: 11 October 2024 00:00
Search period end: 21 October 2024 00:00
Orbit: 412 x 423 km, 51.6° (Epoch: 10 October)

Date Brightness Start Highest point End Pass type
(mag) Time Alt. Az. Time Alt. Az. Time Alt. Az.
13 Oct -0.4 05:23:14 10° SE 05:24:21 11° SE 05:25:27 10° ESE visible
15 Oct -2.4 05:21:10 10° SSW 05:24:18 40° SE 05:27:26 10° ENE visible
16 Oct -1.3 04:33:32 10° S 04:36:04 20° SE 04:38:37 10° ENE visible
17 Oct -0.4 03:48:03 10° ESE 03:48:03 10° ESE 03:48:25 10° ESE visible
17 Oct -3.5 05:21:01 10° WSW 05:24:11 49° NW 05:27:25 10° NE visible
18 Oct -3.8 04:35:27 73° S 04:35:41 79° SE 04:39:00 10° NE visible
19 Oct -0.6 03:49:37 15° ENE 03:49:37 15° ENE 03:50:16 10° ENE visible
19 Oct -2.0 05:22:33 14° WNW 05:24:00 17° NW 05:26:18 10° N visible
20 Oct -2.0 04:36:27 22° N 04:36:27 22° N 04:38:11 10° NNE visible
